Temperature
18 18 18 18 17 17 17 17 17 16 16 17 17 17 17 17 16 16 16 16 16 16 16 16 15 15 15 15 15 14 14 14 14 13 13 13 13 13
17 17 17 17 17 17 17 17 17 17 16 17 17 17 17 16 16 16 16 16 16 16 15 15 15 15 15 15 15 14 14 14 14 13 13 13 13 13
17 17 17 17 17 17 17 17 17 16 16 17 17 17 16 16 16 16 16 16 15 15 15 15 15 15 15 14 14 14 14 14 13 13 13 13 13 12
17 17 17 17 17 17 17 17 17 16 16 16 16 16 16 16 16 16 16 15 15 15 15 15 15 15 14 14 14 14 14 14 13 13 13 13 12 12
17 17 17 17 17 17 16 16 16 16 16 16 16 16 16 16 15 15 15 15 15 15 15 15 14 14 14 14 14 13 13 13 13 13 13 13 12 12
17 17 17 17 17 16 16 16 16 16 16 16 16 16 16 15 15 15 15 15 15 15 14 14 14 14 14 14 13 13 13 13 13 13 12 12 12 12
17 17 17 16 16 16 16 16 16 16 15 15 15 15 15 15 15 15 15 15 14 14 14 14 14 14 14 13 13 13 13 13 12 12 12 12 12 12
17 17 16 16 16 16 16 16 16 15 15 15 15 15 15 15 15 14 14 14 14 14 14 14 14 14 13 13 13 13 12 12 12 12 12 12 12 11
17 17 16 16 16 16 16 16 16 15 15 15 15 15 15 15 15 14 14 14 14 14 14 14 14 14 13 13 13 13 12 12 12 12 12 12 12 11
16 16 16 16 16 16 16 16 16 16 15 15 15 15 15 15 14 14 14 14 14 14 13 13 14 14 13 13 13 12 12 12 12 12 11 11 11 11
16 16 16 16 16 15 15 15 15 15 15 15 15 15 15 14 14 14 14 13 13 14 13 13 13 13 13 13 13 12 12 12 11 11 11 11 11 11
16 16 16 16 16 15 15 15 15 15 15 15 15 15 14 14 14 14 14 13 13 13 13 13 13 13 12 13 12 12 12 11 11 11 11 11 11 10
16 16 15 15 15 15 15 15 15 15 15 14 14 14 14 14 14 13 13 13 13 13 13 13 13 12 12 12 12 12 12 11 11 11 11 11 10 10
15 15 15 15 15 15 15 14 14 14 14 14 14 14 14 14 13 13 13 13 13 13 13 12 12 12 12 11 11 11 11 11 11 11 11 10 10 10
15 15 15 14 14 14 14 14 14 14 13 13 13 13 13 13 13 13 13 13 13 12 12 12 12 12 12 11 11 11 11 11 11 10 10 10 10 10
15 14 14 14 14 14 14 14 13 13 13 13 13 13 13 13 13 13 12 12 12 12 12 12 12 11 11 11 11 11 10 10 10 10 10 10 9 9
14 14 14 14 14 14 13 13 13 13 13 13 12 12 12 12 12 12 12 12 12 12 12 12 11 11 11 11 10 10 10 10 10 10 9 9 9 9
14 14 14 14 13 13 13 13 13 13 13 12 12 12 12 12 12 12 12 11 11 11 11 11 11 11 10 10 10 10 10 10 9 9 9 9 9 9
14 13 13 13 13 13 13 12 12 12 12 12 12 12 12 12 12 11 11 11 11 11 11 11 10 10 10 10 10 10 10 9 9 9 9 9 9 9
13 13 13 13 13 12 12 12 12 12 12 12 12 12 11 11 11 11 11 11 10 10 10 10 10 10 10 9 9 9 9 9 9 9 9 8 8 8
13 13 13 12 12 12 12 12 12 11 11 11 11 11 11 11 11 10 10 10 10 10 10 10 10 10 9 9 9 9 9 9 9 9 8 8 8 8
13 12 12 12 12 12 12 11 11 11 11 11 11 11 10 10 10 10 10 10 10 9 9 9 9 9 9 9 9 9 9 9 8 8 8 8 8 8
12 12 12 12 12 11 11 11 11 11 11 10 10 10 10 10 10 10 9 9 9 9 9 9 9 9 9 9 8 8 8 8 8 8 8 8 8 8
Wind_Speed
3 2 2 2 2 3 3 4 4 3 4 3 3 3 5 6 8 8 8 10 11 11 12 12 11 11 10 9 9 8 7 6 6 6 5 5 5 4
2 1 2 2 2 2 3 3 3 4 4 4 4 3 4 5 7 8 9 10 12 13 13 13 13 12 12 11 11 10 9 8 7 7 6 5 4 4
2 2 3 2 2 2 2 3 3 3 4 4 2 2 3 3 4 6 8 8 9 12 13 13 13 13 12 12 11 11 10 10 9 8 7 6 5 5
3 2 3 3 3 2 2 3 3 4 4 4 3 2 3 4 4 4 5 6 7 10 12 13 13 13 12 12 12 11 10 10 9 8 8 7 6 5
4 4 4 3 3 3 3 3 3 3 3 3 3 2 2 2 2 2 3 3 6 8 10 12 13 13 13 13 12 12 12 11 10 9 9 8 7 6
4 4 4 4 5 5 4 4 3 3 2 2 2 2 2 2 2 2 2 3 4 5 7 9 11 12 13 13 13 12 12 12 11 11 10 10 9 8
4 4 4 5 5 4 3 4 4 3 3 3 3 2 2 2 3 3 4 3 3 4 3 4 6 6 9 11 12 13 13 12 12 12 12 11 11 10
4 4 4 4 5 6 6 6 6 5 5 4 4 4 5 5 4 4 4 2 3 3 4 4 4 5 7 9 12 13 13 13 12 12 12 12 12 12
4 4 4 3 3 4 5 6 7 7 7 6 6 7 6 6 5 5 5 5 5 4 4 4 4 5 6 10 13 14 15 14 14 13 13 13 13 13
5 5 5 4 4 4 4 4 5 6 8 6 7 7 7 6 7 7 7 5 4 3 4 4 3 4 5 8 13 16 16 16 15 14 14 14 14 14
5 5 5 5 5 5 4 5 5 6 6 8 8 7 8 8 6 4 4 4 4 3 4 3 3 2 3 5 9 13 15 16 15 15 15 15 14 13
5 5 6 6 7 6 5 5 6 6 5 4 4 6 6 6 7 7 6 5 4 3 4 4 3 2 2 2 4 6 9 12 14 15 15 15 14 10
5 5 5 7 7 7 6 6 7 6 3 3 4 4 4 4 4 5 6 6 6 5 4 4 3 3 3 2 2 3 5 5 7 9 12 14 14 12
6 5 5 7 7 7 6 6 6 4 2 2 3 4 4 4 5 5 6 6 7 7 6 5 4 4 4 3 3 2 3 4 5 5 6 9 11 14
6 7 6 6 5 5 6 6 4 2 2 3 4 5 5 5 4 3 3 4 4 5 5 5 5 4 4 5 4 3 2 3 4 4 4 5 6 6
6 5 5 4 3 3 3 3 3 3 4 4 4 4 3 2 3 2 2 2 2 3 3 4 5 5 4 5 4 4 4 3 3 4 4 4 5 7
3 1 1 2 2 3 3 3 3 2 4 4 4 4 3 3 3 2 2 2 3 3 2 2 1 2 4 4 4 5 4 3 4 4 4 4 5 6
2 2 4 4 5 5 4 4 4 4 4 4 4 4 4 4 4 2 2 3 4 4 3 2 1 1 1 2 5 5 4 4 3 4 4 4 4 4
3 4 5 5 5 5 5 5 5 5 4 4 4 4 4 4 3 3 3 3 4 4 4 2 2 3 3 4 3 5 5 4 3 3 4 4 4 5
4 5 6 5 5 5 5 5 5 4 4 4 4 4 4 4 3 3 3 3 3 3 3 3 3 4 5 5 4 3 7 6 5 4 3 3 2 2
4 5 5 5 5 5 5 5 5 4 4 4 4 4 4 3 3 3 3 4 4 3 4 5 5 6 3 1 2 3 3 6 7 5 4 3 2 2
5 5 5 5 5 5 4 4 4 4 4 4 4 4 4 4 4 4 4 4 4 4 5 4 3 2 2 4 5 4 3 2 3 5 6 6 5 5
5 5 5 4 4 4 4 4 4 4 4 4 4 4 3 3 3 4 4 4 4 4 3 3 2 2 3 4 5 4 4 3 2 1 2 2 5 7
Wind_Direction
230 223 224 229 211 198 184 171 171 213 248 239 230 223 212 208 208 202 203 212 211 206 208 209 209 211 212 212 211 207 208 212 217 222 230 238 242 244
224 218 241 243 234 214 199 196 184 185 226 234 227 227 214 219 216 207 211 214 211 212 213 213 214 213 211 211 212 211 210 210 215 222 223 224 227 229
237 221 242 236 229 227 210 202 200 182 222 256 234 222 205 218 211 211 213 211 215 220 221 219 216 213 212 212 213 212 211 212 214 216 220 219 221 225
241 232 245 240 238 231 218 221 220 208 204 232 238 220 220 216 204 206 211 212 217 225 225 221 219 217 214 214 214 213 213 215 216 217 218 217 220 222
234 224 234 221 236 241 230 229 234 233 207 208 234 222 224 211 192 215 220 218 224 230 226 224 224 223 221 218 217 217 215 216 217 218 217 214 212 211
243 229 227 216 224 230 236 230 225 228 218 213 229 230 218 209 176 206 235 229 233 226 221 223 225 226 223 219 217 219 219 218 218 219 218 216 212 210
260 246 238 231 226 222 233 225 217 218 219 218 227 223 216 201 211 206 218 233 240 219 209 222 216 221 224 224 223 221 221 221 220 220 219 216 216 214
256 262 257 245 244 242 242 227 210 211 218 215 223 227 229 216 210 208 204 204 249 221 194 232 208 220 222 219 221 219 220 221 221 222 221 219 218 217
243 249 259 258 243 245 251 244 237 234 221 212 221 231 227 216 204 213 212 211 227 213 183 229 215 227 228 222 217 218 219 220 220 222 221 218 217 218
245 239 239 253 250 238 241 249 248 246 239 228 223 230 231 222 207 208 212 221 239 223 187 216 219 225 230 224 221 218 218 218 219 221 220 218 218 218
255 247 235 241 258 249 235 244 258 263 257 241 236 237 236 228 212 198 200 200 234 237 200 203 218 226 235 234 227 221 219 219 220 220 218 217 217 217
264 258 244 241 250 244 235 234 249 259 262 267 258 259 250 242 224 209 204 207 220 235 211 195 201 182 249 248 226 215 217 221 221 220 218 216 213 208
253 258 256 246 244 244 235 232 241 251 251 243 251 258 255 245 239 230 217 210 217 235 216 187 197 192 204 238 252 221 209 212 214 220 221 218 214 205
246 252 255 249 246 246 243 252 257 254 243 243 254 256 252 249 247 242 232 225 225 231 217 190 198 200 202 222 239 230 215 213 204 206 211 213 217 217
248 249 252 254 251 247 246 252 253 240 228 240 251 254 249 246 244 247 247 240 243 243 227 204 201 204 202 215 216 202 211 228 206 201 202 204 208 206
257 262 268 270 262 257 259 254 242 228 222 238 253 261 263 257 250 242 242 249 262 281 281 225 206 200 214 214 207 212 204 208 206 204 206 214 215 208
229 243 259 264 267 267 266 261 251 240 239 243 246 259 263 255 256 248 234 232 233 250 274 298 248 216 213 204 212 220 211 215 209 196 194 217 228 219
183 232 242 241 243 248 250 254 248 246 242 238 238 239 247 248 253 250 232 228 238 243 246 235 181 79 340 272 227 216 216 218 212 195 191 204 232 232
196 237 243 242 243 244 242 242 244 243 236 233 237 240 241 245 249 247 236 233 240 242 243 226 200 188 224 260 265 212 210 215 202 206 206 204 223 232
226 238 243 244 241 242 243 243 246 249 240 236 236 238 237 237 241 240 233 230 236 243 252 244 224 215 219 235 245 244 213 206 201 209 214 207 222 230
237 241 243 243 242 241 243 241 237 237 238 235 239 240 235 230 235 235 232 235 234 235 240 247 245 232 228 201 238 261 253 212 204 205 200 192 195 195
238 240 242 241 241 243 240 236 235 236 238 240 245 242 235 227 228 229 229 232 236 237 243 254 257 224 203 211 228 244 258 258 224 214 204 193 185 195
241 241 241 241 242 242 238 236 235 239 239 238 241 239 234 233 231 225 229 231 232 235 241 252 254 231 227 219 222 230 239 245 240 216 253 227 202 205
Height
1525 1525 1525 1524 1525 1525 1525 1526 1526 1525 1524 1524 1524 1524 1524 1524 1524 1524 1523 1523 1524 1524 1524 1524 1523 1523 1523 1523 1523 1522 1522 1522 1522 1522 1521 1521 1521 1521
1523 1523 1522 1522 1522 1523 1523 1523 1523 1523 1522 1521 1521 1522 1522 1522 1521 1521 1521 1521 1521 1521 1521 1520 1520 1520 1520 1520 1520 1519 1519 1519 1519 1519 1518 1518 1518 1518
1520 1520 1520 1520 1520 1520 1520 1520 1520 1520 1519 1518 1519 1519 1519 1518 1518 1518 1518 1518 1518 1518 1517 1517 1517 1517 1517 1516 1516 1516 1516 1516 1516 1515 1515 1515 1515 1515
1518 1517 1517 1517 1517 1517 1517 1517 1517 1517 1516 1515 1515 1515 1515 1515 1515 1514 1515 1514 1514 1515 1514 1514 1513 1513 1513 1513 1513 1513 1513 1513 1513 1512 1512 1512 1512 1512
1515 1515 1514 1514 1514 1514 1514 1514 1514 1513 1513 1512 1511 1512 1512 1512 1511 1511 1511 1510 1511 1511 1510 1510 1510 1509 1509 1509 1509 1509 1509 1509 1509 1509 1509 1509 1509 1509
1512 1512 1511 1511 1511 1511 1510 1510 1510 1510 1509 1509 1508 1508 1508 1508 1507 1507 1506 1506 1506 1506 1506 1506 1506 1506 1505 1505 1506 1506 1506 1506 1506 1506 1506 1506 1506 1507
1509 1509 1508 1508 1508 1507 1507 1506 1506 1505 1505 1504 1504 1504 1503 1503 1503 1503 1502 1502 1502 1502 1502 1502 1502 1502 1502 1502 1502 1502 1502 1502 1502 1502 1502 1503 1503 1504
1506 1505 1505 1505 1504 1504 1503 1503 1502 1501 1501 1500 1499 1499 1498 1499 1499 1498 1498 1497 1497 1498 1498 1497 1498 1497 1497 1498 1498 1498 1498 1498 1498 1498 1499 1499 1499 1500
1502 1502 1501 1500 1500 1499 1499 1498 1498 1497 1497 1496 1495 1494 1494 1494 1494 1494 1494 1493 1493 1494 1494 1492 1493 1493 1493 1493 1494 1494 1494 1494 1494 1494 1495 1495 1496 1496
1499 1498 1497 1496 1496 1495 1494 1493 1493 1492 1492 1491 1490 1490 1490 1490 1490 1490 1489 1489 1489 1490 1490 1489 1488 1488 1489 1489 1490 1490 1490 1490 1490 1490 1490 1491 1492 1492
1495 1494 1494 1493 1492 1491 1490 1489 1488 1488 1488 1487 1486 1486 1486 1485 1485 1485 1484 1484 1483 1484 1485 1484 1484 1484 1484 1484 1485 1485 1485 1485 1486 1486 1486 1487 1487 1488
1491 1490 1489 1489 1488 1487 1486 1484 1483 1483 1483 1482 1482 1481 1481 1480 1480 1480 1479 1479 1478 1478 1479 1479 1479 1479 1479 1479 1480 1480 1480 1481 1481 1481 1482 1482 1483 1483
1486 1486 1485 1484 1484 1483 1482 1481 1480 1480 1479 1478 1477 1476 1475 1475 1474 1475 1475 1474 1474 1474 1475 1475 1474 1474 1474 1474 1475 1475 1476 1476 1476 1477 1477 1478 1478 1479
1482 1482 1481 1480 1479 1478 1478 1477 1477 1476 1474 1473 1471 1470 1470 1469 1469 1469 1469 1469 1469 1469 1470 1470 1469 1469 1469 1469 1469 1470 1471 1471 1471 1471 1472 1472 1473 1473
1478 1477 1477 1476 1475 1474 1473 1473 1472 1471 1470 1468 1467 1466 1465 1465 1465 1465 1464 1464 1464 1464 1464 1464 1464 1464 1465 1464 1464 1464 1465 1466 1466 1466 1466 1467 1467 1468
1474 1473 1473 1472 1471 1470 1469 1468 1467 1466 1465 1464 1463 1462 1461 1461 1460 1460 1460 1460 1459 1458 1459 1459 1459 1459 1459 1459 1459 1459 1460 1460 1460 1461 1461 1461 1462 1462
1470 1469 1468 1467 1466 1465 1464 1463 1463 1462 1461 1460 1459 1458 1457 1456 1456 1456 1455 1455 1455 1454 1453 1453 1454 1454 1454 1454 1454 1454 1454 1454 1455 1456 1456 1455 1456 1456
1466 1464 1463 1462 1461 1460 1459 1458 1458 1457 1456 1456 1455 1454 1453 1452 1452 1451 1451 1451 1450 1450 1449 1449 1449 1449 1449 1449 1450 1449 1449 1449 1450 1450 1450 1450 1450 1451
1461 1460 1459 1458 1457 1456 1455 1454 1453 1452 1452 1451 1450 1449 1449 1448 1447 1447 1446 1446 1446 1446 1445 1445 1445 1444 1444 1443 1444 1445 1445 1444 1445 1445 1446 1446 1446 1447
1456 1455 1454 1453 1452 1451 1450 1450 1449 1448 1447 1446 1445 1444 1443 1443 1442 1442 1442 1442 1442 1442 1441 1441 1441 1440 1440 1440 1439 1440 1441 1441 1440 1440 1441 1442 1442 1444
1452 1451 1450 1449 1447 1446 1446 1445 1444 1443 1442 1441 1440 1439 1439 1438 1438 1438 1438 1438 1438 1437 1437 1436 1436 1437 1436 1436 1436 1435 1436 1437 1436 1436 1437 1438 1438 1439
1447 1446 1444 1443 1442 1441 1440 1439 1438 1438 1437 1436 1435 1435 1434 1434 1434 1433 1433 1433 1433 1433 1433 1432 1433 1433 1432 1432 1431 1431 1431 1432 1432 1433 1433 1434 1434 1434
1441 1440 1439 1438 1437 1436 1435 1434 1433 1432 1431 1430 1430 1430 1429 1429 1429 1429 1428 1428 1428 1428 1428 1428 1428 1428 1428 1427 1427 1427 1427 1428 1428 1428 1429 1430 1431 1432